Wind_Speed
124 120 116 115 114 113 112 109 107 105 104 101 99 98 98 97 97 95 91 88 86 84 82 79 77 76 75 74 73 72 72 71 71 70 69 69 66 63 61 60 59 57 57 57 58 59 60 60 60 59 58 59 62 67 70 71 72 74 76 78 80 84 90 96 102 108 113 117 122 126 132 137 143 147 151 154 156 159 160 161 161 161 163 165 167
119 115 113 113 113 112 110 106 102 99 99 97 95 94 94 94 93 92 90 87 84 81 79 76 74 73 73 72 72 71 70 70 69 68 68 67 64 62 61 59 58 57 55 56 57 58 59 59 59 58 57 58 61 65 68 69 70 72 74 76 78 81 86 92 98 105 110 115 120 124 129 135 141 145 149 151 153 156 158 160 161 162 162 164 167
115 113 112 111 110 107 103 100 97 95 94 93 92 91 91 91 90 89 86 83 81 78 76 74 72 71 71 70 70 69 68 68 67 67 66 65 63 61 60 58 57 56 55 55 56 57 58 59 59 57 57 58 61 64 67 69 69 70 72 74 76 79 83 88 94 101 107 112 117 122 127 132 137 142 146 149 151 153 155 158 160 161 162 164 166
113 111 110 108 104 99 96 94 93 92 90 90 90 89 88 88 87 85 82 79 77 75 74 72 71 70 69 68 68 67 66 66 65 65 64 63 61 60 59 58 56 55 54 54 55 56 58 59 58 57 56 58 60 63 66 68 69 69 70 72 74 76 80 84 90 96 103 109 115 120 125 130 134 138 142 146 149 152 154 156 159 160 161 163 164
112 110 108 103 97 93 92 91 89 89 88 87 87 86 85 85 83 81 78 75 73 72 71 70 70 68 67 66 65 64 64 64 63 63 62 61 60 59 58 57 55 54 54 54 54 55 57 58 58 56 56 57 59 62 65 67 68 68 68 69 72 74 77 81 86 92 98 105 110 116 121 126 131 135 139 142 145 149 152 155 157 158 160 161 163
111 109 104 98 92 90 89 87 85 86 85 84 83 83 82 81 80 77 74 72 70 69 68 68 67 66 65 63 62 61 61 61 61 61 60 59 58 58 57 56 55 54 54 53 53 54 56 58 57 56 57 57 58 60 64 66 67 68 67 68 70 72 75 78 83 88 93 99 105 110 116 122 127 131 135 138 142 146 149 152 155 157 159 160 162
109 105 99 93 89 87 87 84 82 82 82 80 78 78 78 77 76 74 71 69 67 66 66 65 64 64 63 60 59 58 58 59 60 59 58 57 57 56 55 55 54 54 53 53 52 53 56 57 56 56 57 57 57 60 64 66 66 66 66 67 68 70 73 76 80 84 89 95 100 105 109 115 122 127 131 135 139 142 146 149 152 155 157 159 160
105 101 95 90 86 85 85 83 79 79 80 77 74 73 73 73 72 70 67 66 65 64 63 62 62 61 60 57 56 55 55 57 58 57 55 55 55 54 54 54 54 53 53 52 51 53 55 55 55 56 57 57 58 61 63 65 65 65 65 66 68 69 71 74 77 81 86 91 96 100 104 109 116 122 127 132 137 141 144 146 149 152 155 157 159
102 98 93 89 85 84 84 81 76 76 77 75 71 69 69 69 68 66 64 62 62 61 60 59 59 58 57 55 53 53 54 56 56 54 53 53 53 53 53 53 53 53 52 51 51 52 54 55 55 56 57 57 58 61 63 64 64 64 64 66 68 69 70 72 75 79 83 88 93 97 101 104 110 118 124 129 135 140 143 145 147 149 152 154 156
100 95 90 86 83 83 84 82 76 73 74 73 69 67 66 65 64 62 61 59 59 58 57 57 56 55 54 53 52 51 52 54 53 52 52 52 52 52 53 53 53 52 51 50 51 52 54 54 55 55 56 57 59 61 62 63 63 63 64 65 67 68 69 70 73 77 81 85 90 94 99 102 106 113 120 126 132 138 142 145 146 148 150 152 153
98 94 88 82 80 80 83 83 77 73 72 72 68 65 63 62 60 59 57 57 56 55 55 54 53 53 52 51 50 50 51 51 51 51 51 50 50 51 52 52 52 51 51 50 50 52 53 54 54 55 55 57 59 60 61 62 62 63 63 64 66 67 69 70 71 75 79 83 87 92 96 100 103 109 116 122 128 135 140 143 146 148 149 151 151
97 92 86 81 78 79 81 82 77 72 71 71 67 63 61 59 57 56 55 55 54 54 53 52 51 50 50 49 49 49 49 49 49 49 49 49 50 50 51 51 51 50 49 49 50 51 52 53 54 54 55 57 59 60 60 61 61 62 63 64 65 66 68 69 71 73 77 81 85 89 93 97 101 106 112 118 124 130 136 140 144 147 149 150 150
95 91 86 81 78 78 80 80 77 72 69 69 66 62 59 57 55 54 53 53 52 52 51 50 49 48 48 48 48 48 47 47 47 48 48 48 49 50 50 50 49 49 48 49 50 51 52 53 53 53 55 57 59 59 60 60 60 61 62 62 63 65 67 69 70 72 75 78 82 86 90 94 98 102 108 113 118 125 132 137 141 144 146 148 149
94 91 87 83 79 78 78 79 77 71 67 66 64 61 58 55 54 52 51 51 50 49 48 47 47 46 47 47 47 46 45 45 46 47 47 47 48 49 49 48 47 48 48 48 50 51 52 53 52 53 55 58 59 58 58 59 59 60 61 61 62 64 66 68 70 71 73 76 80 83 87 91 95 99 104 109 114 119 126 132 137 141 143 145 146
94 92 88 84 81 78 76 77 76 71 66 64 62 59 57 54 52 51 50 49 48 47 46 45 45 45 46 46 45 44 44 44 45 46 46 46 47 48 48 46 46 47 47 48 49 50 51 52 52 53 55 58 58 57 57 58 59 59 59 60 62 63 65 67 69 70 72 74 77 80 84 88 92 96 100 105 110 114 119 125 131 136 139 142 143
93 92 88 85 82 79 74 74 74 70 64 62 60 57 55 53 51 50 49 48 47 46 45 44 44 44 44 44 44 43 43 43 44 45 45 45 46 47 47 45 45 46 47 47 48 50 51 51 51 53 55 57 57 56 56 57 58 58 58 59 60 62 64 66 68 69 70 72 75 78 81 85 89 93 97 102 106 110 114 119 124 130 135 139 142
93 92 89 85 82 79 74 72 72 68 63 61 59 55 53 52 50 49 48 47 46 45 44 43 43 43 43 42 42 42 41 42 43 44 43 44 45 46 45 44 44 45 46 47 48 49 50 50 51 53 55 56 56 55 55 56 57 57 57 58 59 61 63 65 67 68 68 70 73 75 78 81 85 89 94 99 103 106 110 115 120 124 129 135 139
93 91 89 84 81 78 74 71 70 66 61 59 58 55 52 51 49 48 47 46 45 44 43 42 42 42 42 41 41 41 40 41 42 42 42 43 44 44 44 44 43 44 45 47 48 49 49 49 50 52 54 55 55 54 54 55 56 56 56 57 58 60 61 64 66 67 67 69 70 73 76 78 82 86 90 95 99 103 107 111 115 119 124 130 135
91 90 87 83 79 76 73 69 67 64 59 57 57 54 52 50 48 47 46 45 44 43 42 42 42 42 41 41 40 40 39 40 41 41 41 42 43 43 43 43 43 43 45 46 47 48 48 49 50 52 53 54 54 53 53 54 55 55 55 56 58 58 59 62 66 66 66 67 69 71 74 76 79 82 86 91 95 99 104 108 111 115 120 125 130
90 88 85 80 76 74 72 68 65 62 58 55 55 54 52 50 48 46 45 44 43 42 41 41 41 41 41 40 39 38 38 39 40 40 40 41 42 42 43 43 42 43 44 46 46 46 47 48 50 51 52 53 54 53 53 54 54 54 54 56 57 56 57 61 65 65 65 66 67 69 71 73 76 79 82 87 91 95 99 103 107 111 116 120 125
87 86 82 78 74 72 70 66 62 59 56 54 53 53 51 49 47 45 44 43 42 40 40 40 40 41 40 39 38 37 37 39 39 39 39 40 41 42 42 42 42 42 43 44 45 45 46 48 49 50 51 53 53 52 52 53 54 53 54 55 55 54 56 60 64 64 63 64 65 66 68 71 74 76 79 83 87 91 95 99 102 107 111 116 120
85 83 79 75 72 69 67 64 59 57 55 53 52 52 51 49 47 45 43 43 41 40 39 39 39 39 39 38 37 37 37 38 38 38 39 40 41 41 41 41 41 42 42 43 44 46 46 47 48 49 51 52 52 52 52 52 53 53 53 54 54 53 55 59 62 62 62 62 63 64 66 69 72 74 76 79 83 87 92 95 98 102 107 111 116
82 80 76 73 70 67 65 62 58 55 53 52 50 51 50 48 46 44 42 42 40 39 38 38 38 38 38 38 37 37 37 37 38 38 39 40 40 40 41 41 41 41 41 42 44 46 46 46 47 48 50 51 51 51 51 52 52 53 52 52 53 53 54 58 60 60 60 60 61 63 65 67 69 71 74 77 80 84 88 92 95 99 103 107 111
79 76 73 70 67 64 62 60 56 53 52 50 49 49 49 47 45 43 42 41 40 38 37 37 37 38 38 38 37 37 37 37 37 38 38 39 39 40 40 41 41 41 41 42 44 45 45 45 46 47 49 50 50 50 50 51 52 51 51 51 52 52 53 56 58 58 59 59 59 61 63 64 66 69 72 75 78 82 85 88 92 96 100 104 107
76 73 70 67 64 61 60 59 56 52 50 48 47 47 47 45 43 42 41 41 39 38 36 36 37 37 37 37 37 37 37 38 38 38 38 39 39 39 40 41 41 41 40 41 44 45 44 44 45 47 48 48 48 48 49 50 50 50 49 50 50 51 52 55 56 57 57 57 57 59 60 62 65 67 70 74 77 80 83 85 88 92 96 100 104
72 70 68 66 63 60 58 58 56 52 49 47 46 46 45 44 42 40 40 40 39 37 36 35 36 36 36 36 36 37 37 38 38 38 38 38 38 39 40 42 42 41 40 41 43 43 43 44 45 46 46 47 47 48 48 49 49 49 48 49 49 50 51 53 55 55 55 55 56 57 58 61 63 65 69 72 75 78 80 83 85 88 92 96 100
69 67 66 64 62 60 58 57 55 52 49 47 45 45 44 43 40 39 39 39 38 37 36 35 35 35 36 35 36 36 37 38 37 37 38 38 39 40 41 42 42 41 40 41 41 42 43 44 45 45 46 46 47 47 47 47 48 48 48 48 48 49 50 51 53 54 53 53 54 55 57 59 61 64 67 70 73 75 78 80 82 85 87 91 95
67 65 64 63 61 59 57 56 54 51 48 46 45 44 43 42 40 38 38 38 38 38 36 35 35 35 35 35 35 36 37 37 37 37 38 39 40 41 42 42 42 40 39 40 40 42 43 44 44 44 45 46 46 46 46 47 47 48 48 47 47 48 48 49 50 52 52 52 52 53 55 58 60 62 64 67 70 72 75 77 80 82 84 87 90
66 64 62 61 60 58 56 55 53 50 47 45 44 43 42 41 39 37 37 37 38 38 37 36 35 35 35 35 35 36 36 37 37 37 38 39 40 42 42 42 41 40 39 40 41 42 42 43 43 44 44 45 45 45 45 46 46 47 47 47 46 46 47 47 48 49 50 50 50 52 53 56 58 60 62 64 66 68 71 74 76 78 81 83 86
65 62 61 60 58 57 55 53 52 49 46 44 43 42 41 40 39 37 36 37 37 38 37 36 35 35 35 35 35 35 36 37 37 38 39 40 41 42 42 41 40 39 39 40 41 41 42 42 43 43 44 44 44 44 45 45 46 46 46 46 46 46 46 46 46 47 48 49 49 50 51 54 56 58 59 61 62 64 68 70 73 75 78 80 82
63 61 59 58 56 55 53 52 50 48 46 43 42 41 40 39 38 36 35 36 37 37 37 36 35 35 35 35 35 36 36 36 37 39 40 41 41 41 41 41 40 40 40 40 41 41 41 42 43 43 43 44 44 44 44 44 45 45 45 45 45 45 45 45 45 45 46 47 48 48 50 52 54 56 57 58 58 61 64 67 69 71 74 77 79
60 58 57 56 55 54 52 51 49 47 45 43 41 41 39 38 38 36 35 35 37 37 37 36 35 35 35 35 35 36 36 36 37 39 40 41 41 41 41 41 40 39 40 41 41 40 41 42 43 43 43 43 43 43 44 44 44 44 45 45 45 45 44 44 44 44 44 45 46 47 48 50 52 54 55 56 55 57 60 63 65 68 70 73 75
59 56 55 53 53 52 51 50 48 46 44 42 41 40 39 38 37 37 36 35 36 37 37 36 36 36 35 35 35 36 36 36 37 38 40 40 41 41 41 40 40 40 40 40 40 40 41 42 42 42 42 43 43 43 43 44 44 44 44 44 44 44 44 44 44 44 44 44 44 45 47 48 50 51 53 54 54 54 57 59 62 64 67 69 71
58 56 53 51 50 50 50 49 48 46 44 42 40 39 39 38 37 36 36 36 36 36 37 37 37 36 36 35 35 36 36 36 37 38 39 40 41 41 40 40 40 40 39 39 40 41 41 42 42 42 43 43 43 43 43 44 44 44 44 44 44 44 43 43 43 43 43 43 43 44 45 46 48 49 51 52 52 53 54 56 58 61 63 64 66
57 55 53 51 49 48 48 48 47 45 43 41 40 39 39 38 37 36 36 36 36 36 36 37 37 37 36 36 35 36 36 36 37 37 38 39 40 40 40 41 40 39 38 39 40 41 41 41 42 42 43 43 43 43 43 43 44 44 43 43 43 43 43 43 42 42 42 42 43 43 44 45 46 47 48 49 50 51 52 53 55 57 59 60 62
57 55 53 51 49 48 47 47 46 44 43 41 40 39 39 38 37 36 36 36 36 36 36 36 37 38 37 37 36 36 36 37 37 37 38 39 39 39 40 41 40 38 38 39 39 40 41 41 42 42 43 43 43 43 43 43 44 43 43 43 43 43 43 42 42 42 42 42 42 43 43 44 44 45 46 47 48 49 50 51 53 54 55 56 58
56 54 53 51 50 48 47 47 46 45 43 42 40 39 39 38 37 36 36 36 36 36 36 36 37 38 38 38 37 37 37 37 38 38 39 39 39 40 41 40 39 39 39 39 39 40 41 41 42 42 43 43 43 43 43 43 43 43 42 42 42 42 42 42 41 41 41 41 42 42 42 43 43 44 44 45 45 46 47 49 50 52 52 53 55
57 55 52 50 49 48 47 46 46 44 43 42 41 39 39 38 38 37 37 36 36 36 36 36 37 38 38 39 38 38 38 38 39 39 39 39 40 40 41 40 40 39 39 39 39 40 40 41 42 42 43 43 44 44 43 43 43 42 42 42 42 42 42 42 41 41 41 41 41 41 41 42 42 43 43 43 44 44 46 47 48 49 50 51 52
58 56 54 52 49 47 46 46 45 45 43 42 41 40 38 38 38 38 37 37 37 36 36 36 37 37 38 38 39 39 39 40 40 40 40 40 41 41 41 41 41 40 40 39 39 40 40 41 41 42 42 43 44 44 43 43 43 42 42 42 41 42 42 42 41 41 41 41 41 40 40 41 41 41 42 42 42 43 44 45 46 47 48 48 49
57 56 54 53 51 48 46 45 45 45 44 43 42 40 39 38 38 38 38 37 37 37 37 37 37 37 37 38 38 39 39 40 41 41 40 40 41 42 42 42 41 41 40 40 39 39 40 40 41 42 42 43 43 43 43 43 43 43 42 42 42 41 41 42 41 41 41 41 41 40 40 40 40 40 41 41 41 42 43 43 45 46 47 47 47
55 54 53 52 51 49 47 46 45 45 45 44 43 41 40 39 39 39 39 38 37 37 37 37 37 37 37 37 38 38 39 40 41 41 41 41 41 42 42 42 42 41 41 40 40 40 40 40 41 41 42 42 43 43 43 43 43 43 43 42 42 41 41 41 41 41 41 40 40 40 40 39 39 39 40 40 41 41 42 42 43 44 45 46 46
53 53 52 51 50 49 47 46 45 45 45 44 43 42 41 40 39 40 40 39 38 38 37 37 37 37 37 38 38 38 39 39 40 41 41 41 42 42 42 42 42 42 41 41 40 40 40 40 40 41 41 42 42 42 43 43 43 43 43 43 42 42 41 41 41 41 40 40 40 40 39 39 39 39 39 40 40 40 41 41 42 43 44 45 45
53 52 51 50 50 49 48 46 45 45 45 45 44 43 42 41 41 40 40 40 39 38 38 37 37 38 38 38 38 38 39 40 40 41 41 42 42 42 42 42 42 42 42 42 41 41 40 40 40 41 41 41 42 42 43 43 43 43 43 43 43 42 41 41 41 40 40 40 40 39 39 39 39 39 39 39 39 40 40 41 41 42 43 44 44
55 53 52 50 49 49 48 47 45 44 45 45 44 43 42 42 42 41 40 40 40 39 38 38 38 39 39 39 39 39 39 39 40 41 41 42 42 42 42 42 42 42 42 42 42 42 41 41 41 41 41 41 41 42 42 43 43 43 43 43 43 42 42 41 41 41 40 40 40 39 39 39 39 39 39 39 39 39 40 40 41 41 42 43 43
54 53 52 51 49 48 47 47 45 44 43 44 44 43 42 42 42 42 41 40 40 39 39 38 39 40 41 41 41 40 40 40 40 41 41 42 42 42 43 43 43 43 43 43 43 43 42 42 42 41 41 41 42 42 42 43 43 43 43 44 43 43 43 42 42 41 41 40 40 40 39 39 39 39 39 39 39 39 39 40 40 41 41 42 42
52 51 51 50 49 48 47 46 45 44 42 42 43 43 42 41 41 41 41 40 40 39 39 39 39 40 41 42 42 42 41 40 40 41 41 42 43 43 44 44 44 44 44 44 44 44 44 44 43 43 42 42 42 43 43 43 43 44 44 44 44 44 43 43 43 43 42 42 41 41 40 40 40 40 40 40 40 39 39 39 40 40 41 41 42
50 50 49 48 48 47 46 45 45 43 42 41 41 41 42 42 41 40 40 40 40 40 39 39 40 41 42 43 43 43 43 42 42 42 42 42 43 44 45 45 46 46 46 46 46 46 46 45 45 44 44 44 44 44 44 44 44 44 45 45 44 44 44 44 44 44 44 43 43 42 42 41 41 41 41 41 40 40 40 40 40 41 41 41 42
51 50 49 49 48 47 47 46 45 44 43 42 40 40 41 41 41 41 40 40 40 40 40 39 40 41 42 43 44 45 44 44 43 43 43 43 43 44 45 46 47 47 48 48 48 48 47 47 47 47 46 46 45 45 45 45 45 45 45 45 45 45 45 45 45 45 45 45 44 44 44 43 43 42 42 42 42 41 41 42 42 42 42 42 42
53 51 50 50 49 48 47 47 46 45 44 43 42 41 40 40 41 41 40 40 40 40 40 40 40 41 41 43 44 45 46 45 45 45 44 44 44 44 45 46 47 48 48 49 49 49 49 49 49 49 48 48 48 48 47 47 47 47 47 47 47 46 46 46 46 46 46 46 46 46 45 45 45 44 44 43 43 43 43 43 43 43 43 43 43
52 52 50 49 49 48 47 47 46 45 44 44 43 42 41 40 40 41 41 41 40 40 40 41 41 41 41 42 43 45 46 46 46 46 46 46 45 45 45 46 47 48 49 49 50 51 51 51 51 51 51 50 50 50 50 49 49 49 49 49 48 48 48 48 48 48 48 47 47 47 47 47 46 46 46 45 45 45 45 45 45 44 44 44 44
52 51 50 49 48 47 46 46 45 44 44 43 42 42 42 41 40 40 40 41 41 40 41 41 41 41 42 42 43 44 45 46 46 47 47 47 47 46 46 46 47 47 48 49 50 51 52 52 52 52 53 52 52 52 52 52 52 52 51 51 51 50 50 50 50 50 49 49 49 49 48 48 48 48 47 47 47 47 46 46 46 46 46 46 46
Wind_Direction
312 312 312 312 311 309 308 306 304 301 300 299 298 296 295 294 293 293 293 292 291 289 287 285 283 281 280 278 277 276 276 275 275 275 275 275 275 273 271 268 266 262 260 258 257 255 254 252 251 249 247 244 240 238 237 234 232 232 231 230 228 225 224 224 224 225 224 224 223 223 222 222 223 223 223 223 222 222 222 222 222 222 222 222 222
313 312 312 312 310 308 307 305 302 301 299 298 297 295 294 293 292 292 292 291 290 288 286 284 282 280 278 277 276 275 275 275 274 274 274 274 274 272 270 267 265 262 259 258 257 255 253 252 250 248 246 244 240 238 237 235 233 232 231 231 229 227 225 224 224 225 224 224 224 224 223 223 223 223 224 223 223 222 222 222 222 222 222 223 223
313 313 312 310 308 307 306 304 302 301 299 298 297 296 294 293 292 292 292 291 289 287 285 284 282 280 278 276 275 274 274 273 273 273 273 273 272 270 269 267 264 261 259 257 256 254 252 251 249 247 245 243 240 237 237 236 234 232 231 231 230 228 226 225 224 224 224 224 224 224 224 224 224 224 224 224 223 223 223 223 223 222 223 223 224
313 312 311 309 308 308 306 304 303 302 300 299 298 296 295 294 293 293 292 291 289 286 285 283 281 279 278 276 275 274 273 272 272 271 271 271 270 269 267 266 263 261 258 257 255 253 251 250 249 247 245 243 240 237 236 236 236 233 231 231 231 230 228 226 225 224 224 224 224 224 224 224 224 224 224 224 223 223 223 223 223 223 223 224 224
313 311 310 309 309 308 306 304 304 302 301 300 299 297 296 294 294 293 292 290 288 286 284 282 280 279 278 276 274 273 272 271 270 270 270 269 268 267 266 265 262 260 258 256 254 252 250 249 248 246 245 242 239 236 236 236 236 235 232 231 231 231 229 228 227 225 225 224 224 223 223 224 224 224 224 224 223 223 224 224 223 223 223 224 225
312 311 310 311 311 310 307 305 304 303 302 301 299 298 296 295 294 293 292 290 288 286 283 281 280 279 277 276 274 272 270 270 269 268 268 267 266 266 265 264 261 259 257 256 253 251 249 248 247 246 245 243 239 236 236 236 236 235 234 232 231 231 230 229 228 227 226 226 225 224 223 223 223 224 224 224 224 224 224 224 224 224 224 224 224
311 310 311 313 313 311 308 306 306 305 303 302 300 299 297 295 294 293 292 290 288 285 283 281 280 279 277 276 274 272 270 268 267 267 266 265 265 264 264 262 260 259 257 256 253 251 249 248 247 245 244 243 240 237 235 235 235 235 234 233 232 231 231 230 230 229 228 227 227 225 224 223 223 224 224 224 224 224 224 224 224 225 224 224 224
311 312 313 314 313 311 309 307 308 308 306 303 302 300 297 295 294 293 292 290 287 285 283 282 280 279 278 276 274 272 269 267 266 265 264 263 263 263 262 261 260 258 257 256 253 250 248 247 245 244 244 243 240 238 236 235 235 234 234 234 233 232 231 231 230 230 229 228 228 227 226 224 224 224 224 224 225 225 225 225 225 225 225 225 225
313 313 314 315 314 313 310 308 309 310 307 305 303 301 298 296 294 293 291 289 287 285 283 281 279 278 277 276 273 271 268 266 265 264 263 262 261 261 261 260 259 258 257 255 252 250 248 247 245 243 243 242 241 239 237 236 235 234 233 234 234 234 232 231 231 231 230 229 229 228 228 226 225 225 225 225 225 226 226 226 226 226 226 226 226
314 314 315 315 316 315 312 310 311 311 309 307 305 303 299 297 295 293 292 289 286 284 282 280 279 278 276 274 272 269 267 265 264 263 261 261 260 260 259 259 258 258 256 254 252 249 247 247 245 244 243 242 241 239 238 237 235 234 233 233 234 234 234 232 231 231 231 230 229 228 228 227 226 226 226 225 225 226 227 227 227 227 227 227 227
314 314 315 315 316 316 314 312 313 314 312 308 306 304 301 298 296 294 292 289 287 284 282 280 279 277 276 274 271 268 266 264 263 261 260 259 258 258 258 257 257 257 256 254 251 249 248 247 246 244 242 241 241 240 238 237 236 234 233 232 233 234 234 233 232 231 231 231 230 229 228 228 227 226 226 226 226 226 227 227 228 228 228 228 229
314 314 315 316 317 317 316 313 313 315 313 309 307 305 301 299 297 295 293 290 287 285 283 281 279 277 275 273 270 267 265 263 261 260 258 257 257 257 257 256 256 256 255 253 250 249 248 247 245 244 243 242 241 240 239 238 237 235 233 232 232 233 234 234 233 232 232 232 232 231 229 228 227 226 226 227 226 226 227 227 228 228 229 229 229
315 315 316 317 318 319 317 314 314 315 313 310 308 305 303 300 299 297 294 291 288 286 284 282 280 277 275 272 269 266 264 262 260 258 257 256 255 256 256 256 256 255 253 251 250 248 248 247 245 244 243 242 241 240 239 238 237 236 234 233 233 233 234 234 234 233 233 232 232 232 231 230 228 226 226 227 227 226 226 227 228 228 228 229 229
315 315 317 318 319 319 318 315 314 315 313 310 307 306 303 302 300 298 295 292 289 286 285 282 280 277 274 271 268 266 263 261 259 257 256 255 254 255 255 255 254 253 251 250 249 248 248 247 245 243 242 242 241 240 240 239 238 236 235 234 234 234 234 234 234 234 234 233 233 233 233 232 230 228 227 227 227 226 226 226 227 228 228 228 228
316 316 317 318 319 319 318 315 314 314 313 310 307 306 304 302 301 299 296 292 289 287 285 283 280 277 274 271 268 266 263 260 258 256 255 254 254 254 254 254 253 251 250 248 248 248 248 247 245 243 242 242 242 241 240 239 238 237 235 235 235 235 235 235 235 235 235 234 233 233 233 233 232 231 229 228 227 227 226 227 227 227 228 228 228
316 316 317 318 318 318 317 315 314 313 313 311 308 306 305 303 301 299 296 293 289 287 285 283 280 277 274 271 268 265 262 259 257 256 254 253 253 253 253 252 251 250 249 248 248 248 247 246 244 243 243 243 243 241 240 239 238 237 235 235 235 236 236 237 237 236 236 236 235 234 233 233 233 232 231 230 229 227 227 227 227 227 228 228 229
316 316 316 317 318 316 316 315 314 313 313 311 308 307 305 303 302 300 297 293 290 287 285 282 280 276 273 270 267 264 261 259 257 255 254 253 252 252 252 251 250 248 248 247 247 247 246 245 244 243 243 243 243 242 240 240 239 238 236 235 236 236 237 238 238 237 237 237 237 235 234 233 233 232 232 231 230 229 228 227 227 227 228 228 229
316 315 315 316 317 315 315 315 313 312 313 311 309 307 306 303 301 300 297 294 290 288 285 283 279 276 272 269 266 264 261 258 257 255 253 252 251 251 251 250 248 247 246 247 247 246 246 245 244 244 244 244 243 242 241 240 239 238 237 236 236 237 238 239 239 238 238 238 238 237 236 234 233 233 232 231 231 230 229 228 228 228 228 228 228
314 314 314 315 316 314 314 314 312 312 312 311 308 307 306 303 301 299 297 294 291 289 286 283 279 275 272 269 266 263 261 258 256 255 253 252 251 251 250 249 247 245 245 246 246 245 245 244 244 244 244 245 244 242 241 240 240 239 238 237 237 237 238 239 240 239 239 239 239 238 238 236 235 233 232 232 231 231 230 229 228 228 228 228 228
313 313 313 315 315 314 313 313 312 311 312 311 308 307 305 303 301 299 297 294 291 288 286 283 280 276 272 269 266 263 260 257 256 254 253 251 251 250 249 248 246 245 244 245 245 245 244 244 244 244 245 245 245 243 241 241 241 240 239 239 238 237 238 240 241 240 239 239 239 239 239 238 237 235 233 232 232 232 231 230 229 228 228 228 228
312 312 313 314 314 313 312 311 311 311 311 310 308 306 305 302 300 298 296 293 289 287 285 283 280 277 273 269 266 262 259 257 255 254 252 251 250 249 248 246 245 244 244 244 244 244 243 243 243 244 245 245 245 244 242 242 242 241 240 240 239 238 239 241 242 241 241 240 240 240 240 239 238 237 235 233 232 232 232 231 230 229 228 228 228
312 312 313 313 313 312 311 310 311 311 311 310 307 305 303 301 299 297 295 291 288 286 283 281 279 276 272 268 264 261 258 256 255 253 251 250 249 248 247 246 244 243 243 243 243 244 243 243 243 244 245 245 245 245 243 243 243 242 241 241 240 239 240 242 242 242 241 241 240 240 239 239 238 237 236 235 233 233 232 232 231 230 229 228 228
312 312 313 312 312 311 310 309 310 311 311 309 306 303 301 300 297 295 293 290 287 285 283 280 277 274 270 267 263 260 258 256 254 253 251 250 249 247 246 245 244 243 242 242 243 244 244 243 243 244 245 245 246 245 245 244 244 244 243 242 241 241 241 242 243 243 242 242 241 240 239 239 238 237 236 236 234 233 232 232 232 231 230 229 228
312 312 312 311 310 310 309 309 310 311 309 308 305 302 299 298 296 294 292 289 286 284 282 279 276 273 269 266 263 260 257 255 253 252 250 249 248 246 245 244 243 241 240 241 242 244 244 244 244 244 244 245 246 246 246 245 245 244 244 243 242 242 242 243 244 244 244 242 241 241 240 239 238 237 236 235 234 233 232 232 231 231 231 230 230
312 311 311 310 310 310 309 309 309 310 308 306 303 300 298 296 295 293 291 288 285 283 280 279 276 273 269 266 263 260 257 255 253 252 250 248 247 246 245 243 242 240 240 240 242 244 244 244 244 244 245 245 246 246 246 246 246 245 244 244 243 242 243 244 245 245 245 244 243 242 240 239 238 237 236 235 234 233 233 232 231 231 230 230 231
312 311 311 311 310 310 309 309 309 309 307 305 302 299 296 295 294 291 289 287 284 281 279 277 275 272 269 266 263 260 257 255 254 251 249 248 246 245 244 242 241 240 239 240 243 244 244 244 244 245 245 245 246 246 246 246 247 246 245 244 244 243 244 245 246 246 245 245 244 243 241 240 238 236 235 235 234 233 233 232 232 231 230 230 230
312 312 312 311 311 311 310 308 308 308 306 304 301 298 296 294 293 290 287 285 282 279 277 275 273 271 269 266 263 260 258 256 254 251 249 247 245 243 242 241 240 239 239 241 243 244 244 244 244 245 245 245 246 246 246 247 247 247 246 245 244 244 244 246 247 247 246 245 244 243 242 241 239 237 235 234 234 233 233 233 232 232 231 230 230
313 313 312 312 311 310 309 307 306 306 305 303 300 297 295 293 292 289 286 284 281 278 276 274 272 270 268 265 262 260 258 256 254 252 249 247 245 243 242 241 240 240 240 241 242 243 243 244 244 244 245 246 246 246 247 247 248 248 247 246 245 245 245 246 247 248 247 245 244 243 243 241 240 238 236 234 234 233 233 233 233 232 232 231 230
314 313 313 312 311 310 308 306 305 305 304 302 299 296 293 292 290 288 285 282 279 277 275 273 271 269 267 265 263 260 258 256 253 251 249 247 245 243 242 241 241 240 240 241 242 243 244 244 245 245 246 246 246 247 247 247 248 248 248 248 247 246 246 246 247 248 247 246 244 243 243 242 241 239 237 235 234 233 233 233 233 233 233 232 232
314 314 313 311 310 308 307 305 304 304 303 300 297 294 292 290 289 288 284 281 277 275 273 271 270 268 266 264 262 260 257 255 253 250 248 246 244 243 242 242 241 240 240 241 242 243 244 244 245 245 246 247 247 247 247 247 247 248 248 249 249 248 247 247 246 247 247 246 245 244 243 243 242 241 238 236 234 233 233 233 233 233 233 233 233
313 312 311 309 308 307 305 304 303 302 301 299 296 293 291 289 288 287 284 280 276 273 271 269 267 266 264 263 260 258 256 254 252 249 247 246 244 243 242 242 241 241 241 242 243 243 244 244 245 246 246 247 248 248 247 247 247 247 248 249 249 249 248 247 247 246 246 245 245 244 243 243 243 242 241 237 234 233 233 233 233 233 233 233 233
312 311 310 308 307 305 304 303 302 301 300 297 295 292 290 289 287 286 283 279 275 272 270 268 266 264 262 261 259 257 254 252 250 249 247 245 244 243 242 242 242 242 243 243 244 244 243 244 245 246 246 247 247 248 248 247 247 247 248 248 249 249 248 248 247 246 245 245 244 244 244 243 243 243 242 240 236 233 233 233 233 232 233 233 233
311 310 309 308 306 304 303 302 301 300 298 296 294 291 290 288 286 285 283 279 276 272 270 267 265 263 261 260 258 256 254 251 249 248 247 245 244 243 243 242 242 243 243 244 245 244 244 244 245 246 246 247 247 247 247 247 247 247 247 247 247 248 248 248 247 247 246 245 244 244 243 243 242 242 242 242 239 235 234 234 233 233 232 232 232
311 310 309 307 305 304 302 301 300 299 298 296 294 291 289 287 285 283 282 279 276 273 269 266 264 262 260 258 257 256 254 251 248 247 246 245 244 243 243 242 242 242 244 245 245 245 245 245 245 245 246 246 246 246 246 246 246 246 246 246 246 246 247 247 247 247 246 245 244 244 243 243 242 242 242 242 240 238 236 235 234 234 233 232 232
311 310 309 307 306 304 302 301 301 300 298 296 293 290 288 286 284 282 280 279 276 273 269 266 263 261 259 257 256 255 253 251 248 246 245 245 244 243 243 242 242 243 243 245 246 246 246 246 246 246 246 246 246 246 245 245 246 246 246 246 245 246 246 246 246 246 246 246 245 244 243 242 242 242 241 241 241 240 238 237 236 235 235 234 232
312 311 310 309 308 306 304 303 302 300 298 296 293 289 287 285 283 281 279 278 276 274 270 266 263 260 258 256 254 253 252 251 249 246 245 244 243 243 243 243 243 243 243 244 245 246 246 246 246 246 246 246 246 245 245 245 245 245 245 245 245 245 246 245 245 245 246 246 245 245 244 243 242 242 241 241 240 240 239 239 238 237 236 235 234
311 311 311 310 309 308 306 304 302 300 298 295 292 289 286 284 283 281 279 277 275 274 271 267 263 260 257 255 253 251 250 249 248 246 244 243 242 243 243 243 243 242 242 243 244 245 246 247 247 247 247 247 247 246 245 245 245 244 244 244 245 245 246 246 245 245 245 245 245 244 244 243 243 242 242 241 240 240 239 240 239 239 237 236 235
311 311 310 309 308 306 304 302 300 299 297 295 292 289 286 284 282 280 278 276 274 273 271 268 265 261 258 256 254 251 250 249 247 246 244 242 241 241 242 242 242 242 242 242 243 244 245 246 247 247 247 247 247 246 246 245 245 244 244 244 244 245 245 245 245 245 245 245 244 244 244 243 243 243 243 242 242 240 239 239 239 240 239 238 236
311 310 309 308 306 304 302 300 298 297 296 294 292 289 287 284 282 280 278 276 274 273 271 269 266 263 260 257 255 253 251 250 249 247 245 243 242 241 241 241 241 241 241 241 242 243 245 246 247 247 247 247 247 247 246 245 245 244 244 244 244 244 245 245 245 245 245 245 244 244 243 243 243 243 243 243 243 242 241 240 239 239 239 239 238
309 308 307 306 304 303 301 299 297 296 294 293 291 289 287 285 282 280 278 276 274 273 271 270 268 266 262 259 256 254 253 252 251 250 248 246 245 243 242 241 241 240 240 240 241 242 244 245 246 247 247 247 247 247 246 245 245 244 243 243 243 244 244 244 244 244 244 244 244 244 243 243 243 244 244 244 243 243 242 241 240 239 239 239 238
307 307 306 305 303 302 300 299 296 294 293 291 290 288 286 284 282 280 278 275 273 272 271 270 269 268 265 261 258 255 253 252 252 252 251 249 248 247 246 244 243 241 241 240 240 241 242 244 245 246 247 247 247 247 246 245 245 244 243 243 243 243 243 244 244 244 244 244 244 244 244 244 244 244 244 244 244 243 243 242 241 241 240 239 238
308 307 306 305 304 302 301 298 296 294 292 290 289 287 286 284 281 279 277 276 273 272 271 270 269 268 266 263 260 257 254 252 252 252 252 251 251 250 249 248 247 245 243 242 241 241 241 242 244 245 246 246 247 246 246 245 245 244 243 243 242 242 243 243 244 244 244 244 244 244 244 245 245 245 245 245 245 244 243 242 242 241 240 240 239
308 307 306 305 304 303 301 299 296 294 292 290 288 286 284 283 280 278 277 275 273 272 270 269 268 267 265 263 261 259 256 253 251 251 251 251 251 251 252 251 251 249 248 246 244 243 242 242 243 244 245 246 246 246 246 246 245 244 244 243 243 243 243 243 244 244 245 245 245 245 245 245 245 245 246 246 246 246 245 244 243 242 241 240 240
310 309 308 306 304 303 301 299 297 295 293 291 289 287 285 283 280 278 276 274 272 271 269 268 267 266 264 263 261 259 257 255 252 251 250 250 250 251 251 252 252 252 251 250 248 246 245 244 243 244 245 246 246 247 247 246 246 245 245 244 244 244 244 244 244 244 245 245 245 246 246 246 246 246 247 247 247 247 247 247 246 244 243 242 241
309 308 307 306 304 302 301 299 297 295 293 291 290 288 286 283 281 279 276 274 272 270 268 267 265 264 263 262 261 259 258 256 254 252 251 250 249 249 249 250 251 251 251 251 250 249 248 246 245 245 245 245 246 247 247 247 246 246 246 245 245 245 245 245 245 245 245 245 246 246 246 247 247 248 248 248 248 249 248 248 248 247 246 245 243
308 307 305 304 303 301 300 298 297 295 293 291 289 288 286 284 282 280 278 275 273 271 269 266 265 263 262 261 260 259 258 256 255 253 251 250 249 248 248 248 248 248 249 250 250 249 249 248 247 246 245 245 246 246 246 247 247 247 246 246 246 246 246 246 246 246 246 246 246 246 247 247 248 248 249 250 250 250 250 250 249 249 249 248 246
309 307 306 304 303 302 301 299 298 296 294 292 289 287 286 284 282 280 278 277 274 272 269 267 265 264 262 261 260 259 257 256 254 253 251 250 248 247 247 246 246 246 246 247 248 248 248 248 247 247 246 246 246 246 246 246 246 247 247 247 247 247 247 247 247 247 247 247 247 247 247 247 247 248 249 250 251 251 252 251 251 251 250 249 249
312 310 309 307 306 304 303 302 300 298 297 294 292 288 286 285 283 281 279 277 275 273 271 268 266 264 263 262 261 260 258 256 255 253 252 250 249 247 246 246 245 245 245 245 245 246 246 246 246 246 246 246 245 245 246 246 246 246 246 246 247 247 247 248 248 248 248 248 248 248 248 248 248 248 249 249 250 251 252 252 253 253 252 251 250
315 313 312 310 309 307 306 304 302 300 298 296 294 291 288 285 284 282 280 278 276 274 272 269 267 264 263 261 261 260 259 258 256 255 253 251 250 248 247 246 246 245 244 244 244 244 244 245 245 245 245 245 245 245 245 245 245 245 245 245 246 246 246 247 247 248 248 248 248 248 248 248 248 249 249 249 250 250 251 252 253 253 253 253 253
315 314 313 311 310 308 306 304 303 301 299 297 295 293 290 287 284 282 281 279 276 274 272 270 267 265 263 261 260 259 259 258 257 256 255 253 252 250 248 247 246 245 245 244 244 244 244 244 244 244 244 244 244 244 244 244 244 244 244 245 245 245 246 246 247 247 247 248 248 248 249 249 249 249 249 250 250 250 251 251 252 252 253 254 254
316 315 313 312 310 308 306 305 303 301 299 297 295 293 291 289 286 283 281 279 277 274 272 270 268 266 263 261 260 259 258 257 257 256 255 254 253 252 251 249 247 246 245 244 244 244 243 243 243 243 243 243 243 243 243 243 243 244 244 244 244 245 245 245 246 246 247 247 248 248 248 249 249 250 250 250 250 251 251 252 252 252 253 253 254
Height
10189 10178 10167 10156 10145 10136 10129 10122 10114 10104 10094 10088 10081 10073 10066 10062 10058 10055 10052 10049 10045 10042 10039 10037 10036 10034 10032 10032 10030 10028 10026 10025 10024 10023 10022 10021 10021 10022 10023 10024 10025 10027 10028 10028 10029 10031 10032 10033 10035 10037 10039 10042 10046 10049 10052 10057 10061 10065 10069 10073 10079 10085 10090 10095 10099 10105 10113 10122 10130 10141 10151 10161 10170 10179 10188 10199 10210 10223 10236 10247 10257 10267 10276 10285 10294
10172 10162 10153 10143 10132 10123 10114 10106 10099 10090 10081 10073 10067 10059 10053 10048 10043 10039 10037 10034 10031 10028 10024 10023 10021 10019 10018 10018 10016 10016 10015 10013 10013 10012 10010 10010 10010 10011 10011 10013 10014 10016 10017 10018 10019 10020 10022 10023 10025 10028 10029 10031 10035 10039 10042 10046 10050 10054 10058 10062 10067 10073 10079 10084 10089 10094 10101 10109 10117 10127 10138 10147 10156 10164 10173 10184 10195 10208 10221 10231 10241 10252 10262 10270 10279
10156 10147 10139 10131 10121 10111 10101 10091 10083 10076 10068 10059 10052 10046 10039 10034 10029 10025 10022 10019 10016 10013 10010 10009 10007 10006 10005 10004 10003 10003 10003 10001 10001 10001 9999 9999 9999 9999 10000 10001 10003 10005 10007 10008 10009 10010 10012 10013 10016 10018 10020 10022 10025 10029 10032 10035 10039 10043 10048 10052 10057 10062 10067 10073 10078 10084 10091 10098 10106 10115 10124 10132 10141 10150 10159 10169 10180 10192 10205 10214 10224 10236 10247 10255 10264
10141 10133 10126 10118 10109 10098 10087 10078 10069 10061 10054 10046 10038 10032 10026 10020 10015 10011 10008 10005 10002 9999 9997 9995 9994 9992 9992 9991 9990 9991 9990 9990 9990 9989 9988 9988 9988 9988 9989 9990 9992 9994 9996 9998 9999 10000 10001 10003 10006 10008 10011 10013 10016 10020 10022 10025 10028 10032 10037 10042 10046 10051 10056 10061 10067 10074 10080 10087 10095 10103 10110 10118 10126 10135 10145 10155 10165 10177 10187 10197 10207 10220 10231 10240 10249
10126 10119 10111 10102 10093 10084 10073 10064 10056 10047 10040 10033 10024 10018 10012 10006 10002 9998 9995 9992 9989 9986 9984 9982 9981 9980 9979 9979 9979 9979 9979 9979 9978 9978 9977 9977 9977 9977 9978 9980 9982 9984 9986 9988 9989 9991 9991 9993 9996 9999 10001 10003 10008 10011 10012 10015 10018 10022 10027 10032 10036 10040 10045 10050 10056 10062 10068 10075 10082 10091 10099 10105 10112 10121 10131 10140 10151 10162 10171 10181 10191 10203 10214 10225 10234
10112 10104 10096 10087 10077 10068 10059 10050 10043 10034 10026 10019 10012 10004 9999 9993 9988 9985 9982 9979 9976 9974 9972 9970 9969 9968 9967 9967 9967 9968 9968 9968 9967 9966 9967 9967 9967 9967 9968 9969 9971 9973 9975 9977 9980 9981 9982 9984 9987 9989 9991 9994 9999 10002 10003 10005 10008 10012 10017 10022 10025 10029 10034 10039 10044 10049 10055 10062 10069 10078 10087 10093 10099 10108 10118 10127 10137 10147 10156 10165 10175 10186 10198 10209 10219
10100 10090 10081 10073 10063 10054 10044 10036 10029 10020 10012 10007 10000 9992 9986 9981 9976 9972 9970 9967 9964 9962 9960 9959 9957 9956 9955 9956 9956 9957 9957 9957 9955 9956 9956 9957 9957 9958 9958 9959 9961 9963 9965 9968 9970 9972 9973 9975 9978 9980 9981 9985 9990 9992 9993 9995 9999 10002 10007 10011 10015 10019 10024 10029 10033 10038 10043 10049 10056 10064 10073 10082 10088 10095 10104 10114 10123 10132 10141 10151 10160 10170 10182 10193 10203
10086 10076 10067 10059 10051 10042 10032 10024 10017 10008 9999 9993 9988 9981 9974 9969 9964 9960 9958 9955 9953 9951 9949 9948 9946 9944 9944 9945 9946 9946 9946 9945 9944 9945 9946 9947 9947 9948 9948 9949 9951 9953 9955 9958 9961 9963 9964 9966 9969 9971 9972 9976 9980 9982 9984 9987 9990 9994 9998 10000 10004 10009 10014 10019 10023 10027 10032 10037 10043 10049 10059 10069 10076 10082 10091 10101 10110 10119 10127 10135 10145 10155 10165 10177 10187
10071 10062 10054 10046 10038 10029 10019 10011 10006 9997 9987 9980 9976 9970 9963 9958 9953 9949 9947 9944 9941 9940 9938 9936 9935 9934 9934 9934 9935 9935 9935 9934 9934 9936 9937 9937 9938 9938 9939 9940 9941 9944 9946 9948 9951 9953 9954 9956 9959 9961 9964 9967 9970 9972 9975 9978 9981 9985 9988 9990 9994 9998 10004 10009 10013 10017 10021 10026 10031 10037 10044 10055 10064 10069 10077 10087 10096 10104 10110 10119 10130 10141 10150 10161 10171
10056 10048 10042 10034 10026 10016 10005 9997 9992 9986 9976 9968 9963 9958 9952 9947 9942 9938 9935 9933 9930 9929 9927 9926 9925 9924 9924 9924 9925 9925 9924 9924 9925 9926 9927 9928 9929 9929 9930 9931 9933 9934 9937 9939 9942 9943 9944 9946 9949 9952 9955 9958 9961 9963 9966 9969 9973 9977 9979 9981 9984 9988 9993 9998 10003 10007 10010 10014 10020 10026 10032 10041 10051 10058 10065 10073 10082 10090 10096 10106 10117 10125 10134 10144 10156
10043 10035 10029 10023 10015 10005 9994 9984 9978 9973 9965 9957 9952 9947 9941 9936 9932 9928 9925 9922 9920 9918 9917 9916 9915 9914 9914 9915 9915 9915 9915 9915 9916 9917 9917 9919 9919 9920 9921 9922 9924 9926 9928 9930 9932 9934 9935 9938 9940 9943 9946 9949 9952 9955 9958 9960 9963 9967 9970 9973 9976 9979 9982 9987 9992 9996 9999 10003 10008 10015 10022 10030 10040 10048 10053 10060 10069 10077 10084 10093 10101 10109 10119 10130 10141
10030 10022 10015 10009 10002 9993 9983 9974 9966 9961 9954 9946 9940 9936 9931 9926 9922 9919 9916 9912 9910 9908 9907 9906 9906 9905 9905 9905 9905 9905 9905 9906 9907 9907 9908 9909 9910 9911 9912 9914 9916 9918 9919 9921 9923 9925 9927 9929 9931 9934 9937 9940 9943 9946 9949 9951 9954 9957 9961 9964 9967 9970 9972 9976 9981 9985 9989 9993 9997 10003 10010 10019 10029 10037 10041 10046 10056 10064 10071 10079 10087 10096 10105 10116 10125
10016 10009 10001 9995 9989 9981 9972 9963 9956 9950 9944 9936 9930 9925 9921 9916 9912 9909 9906 9903 9901 9899 9898 9897 9896 9896 9896 9896 9896 9896 9896 9898 9898 9898 9899 9900 9901 9903 9904 9906 9908 9909 9911 9913 9915 9916 9918 9920 9923 9926 9929 9931 9933 9937 9940 9942 9945 9948 9951 9955 9958 9961 9963 9966 9970 9974 9978 9982 9986 9992 9998 10006 10015 10024 10029 10034 10043 10051 10059 10066 10074 10082 10091 10101 10110
10004 9996 9989 9982 9976 9970 9962 9952 9944 9940 9934 9927 9920 9915 9911 9907 9903 9900 9897 9894 9892 9890 9889 9888 9887 9887 9887 9886 9887 9887 9888 9889 9889 9889 9890 9892 9893 9894 9896 9898 9900 9901 9903 9905 9906 9908 9909 9912 9915 9918 9920 9921 9924 9928 9932 9934 9936 9938 9942 9946 9948 9951 9954 9956 9960 9964 9968 9972 9976 9981 9986 9992 10000 10010 10017 10023 10030 10038 10045 10052 10059 10067 10076 10085 10094
9992 9983 9976 9970 9964 9959 9952 9943 9934 9929 9924 9917 9911 9906 9901 9897 9894 9891 9888 9885 9883 9881 9880 9879 9878 9878 9878 9878 9878 9879 9880 9880 9880 9881 9882 9884 9886 9886 9888 9890 9892 9893 9895 9897 9898 9900 9901 9903 9906 9909 9910 9912 9915 9920 9923 9925 9927 9930 9933 9936 9939 9941 9944 9947 9950 9954 9958 9962 9966 9971 9976 9981 9987 9996 10003 10009 10016 10024 10031 10038 10045 10052 10060 10069 10078
9979 9971 9964 9958 9953 9947 9942 9935 9926 9920 9914 9908 9902 9897 9892 9888 9885 9882 9879 9877 9874 9873 9871 9870 9870 9870 9869 9869 9870 9870 9872 9872 9872 9873 9875 9876 9877 9878 9880 9883 9884 9885 9887 9889 9890 9891 9893 9895 9898 9900 9902 9904 9907 9911 9915 9916 9918 9921 9925 9927 9929 9931 9934 9937 9940 9944 9948 9951 9956 9961 9966 9971 9976 9983 9989 9995 10002 10010 10018 10025 10031 10038 10046 10054 10063
9966 9958 9952 9947 9942 9936 9930 9924 9917 9910 9904 9898 9893 9888 9883 9880 9877 9874 9871 9869 9866 9865 9864 9863 9862 9861 9861 9861 9862 9862 9864 9864 9864 9865 9867 9868 9869 9870 9872 9875 9876 9877 9879 9881 9882 9883 9885 9887 9890 9892 9893 9895 9899 9903 9906 9908 9910 9913 9916 9919 9920 9922 9925 9927 9929 9934 9938 9941 9945 9950 9955 9960 9965 9971 9976 9981 9987 9995 10004 10011 10016 10023 10031 10039 10047
9954 9947 9940 9936 9931 9925 9919 9913 9907 9901 9895 9889 9884 9879 9875 9872 9869 9866 9863 9861 9859 9857 9856 9855 9854 9853 9853 9854 9854 9855 9856 9856 9856 9857 9859 9861 9862 9863 9865 9867 9869 9870 9871 9873 9874 9875 9878 9880 9882 9883 9885 9887 9890 9895 9897 9899 9901 9904 9908 9910 9911 9913 9916 9917 9919 9923 9928 9931 9935 9939 9943 9948 9954 9959 9964 9969 9975 9981 9988 9995 10002 10010 10017 10024 10031
9943 9936 9930 9926 9920 9914 9908 9903 9897 9891 9886 9880 9875 9871 9867 9864 9861 9858 9856 9853 9851 9850 9848 9847 9847 9846 9846 9846 9847 9847 9848 9848 9849 9850 9852 9853 9854 9855 9857 9859 9861 9863 9864 9865 9867 9868 9871 9873 9874 9875 9877 9879 9882 9886 9889 9891 9893 9896 9899 9901 9902 9906 9908 9908 9909 9913 9918 9922 9925 9927 9931 9936 9942 9947 9952 9957 9963 9969 9974 9981 9990 9997 10003 10009 10016
9932 9925 9919 9915 9909 9903 9898 9893 9888 9882 9877 9871 9866 9862 9859 9856 9853 9850 9848 9846 9844 9842 9841 9840 9839 9839 9839 9839 9839 9840 9841 9841 9841 9843 9845 9846 9847 9848 9850 9851 9853 9856 9857 9858 9860 9862 9864 9865 9866 9868 9870 9871 9874 9878 9880 9882 9885 9888 9890 9891 9894 9899 9900 9898 9898 9903 9908 9912 9915 9918 9922 9926 9930 9935 9941 9945 9950 9955 9961 9968 9977 9984 9990 9996 10003
9921 9914 9908 9904 9899 9892 9887 9883 9878 9872 9867 9862 9857 9853 9850 9848 9845 9843 9841 9839 9837 9835 9833 9833 9832 9832 9832 9832 9832 9833 9833 9834 9834 9836 9837 9838 9839 9840 9842 9844 9846 9849 9850 9851 9853 9854 9856 9858 9859 9861 9862 9864 9866 9869 9872 9874 9876 9879 9881 9883 9886 9891 9891 9888 9889 9894 9899 9903 9907 9910 9913 9915 9919 9923 9928 9933 9938 9943 9948 9955 9964 9971 9977 9983 9989
9909 9903 9897 9892 9888 9882 9876 9872 9868 9863 9858 9853 9849 9845 9842 9840 9837 9835 9833 9831 9829 9828 9827 9826 9825 9825 9825 9825 9825 9826 9826 9827 9828 9829 9830 9831 9832 9833 9835 9837 9839 9842 9843 9845 9845 9847 9849 9850 9852 9853 9855 9856 9858 9861 9864 9866 9868 9870 9873 9875 9878 9881 9881 9879 9881 9885 9890 9894 9898 9900 9903 9905 9908 9912 9917 9922 9927 9931 9936 9942 9949 9957 9963 9969 9975
9897 9891 9886 9881 9877 9872 9866 9861 9858 9854 9849 9845 9841 9837 9834 9832 9829 9827 9825 9824 9822 9821 9820 9819 9819 9818 9818 9818 9818 9818 9819 9820 9821 9822 9823 9824 9825 9827 9828 9830 9833 9835 9837 9838 9838 9839 9841 9843 9845 9846 9847 9849 9851 9854 9856 9858 9860 9862 9864 9867 9869 9872 9872 9871 9872 9876 9881 9885 9888 9890 9893 9896 9899 9903 9907 9911 9915 9919 9923 9929 9935 9941 9947 9954 9960
9886 9880 9875 9871 9866 9861 9856 9851 9848 9845 9841 9837 9833 9829 9827 9825 9822 9819 9817 9816 9815 9814 9813 9812 9812 9811 9811 9811 9812 9812 9812 9813 9814 9815 9816 9817 9818 9820 9822 9824 9826 9828 9830 9831 9831 9831 9833 9836 9838 9839 9840 9842 9844 9846 9848 9850 9851 9853 9856 9858 9860 9863 9863 9862 9864 9868 9871 9875 9878 9881 9884 9888 9890 9893 9897 9900 9902 9906 9910 9915 9921 9927 9933 9938 9945
9875 9870 9865 9860 9856 9851 9846 9841 9838 9836 9833 9829 9825 9822 9819 9817 9814 9812 9810 9809 9808 9807 9806 9805 9805 9805 9805 9805 9805 9805 9805 9805 9806 9808 9809 9810 9811 9813 9815 9817 9819 9821 9823 9823 9823 9824 9827 9829 9830 9832 9833 9835 9837 9839 9840 9841 9843 9846 9848 9850 9852 9854 9854 9854 9856 9859 9862 9865 9869 9872 9875 9877 9880 9883 9886 9888 9891 9894 9899 9904 9909 9915 9920 9925 9931
9864 9858 9853 9848 9844 9840 9835 9831 9827 9825 9823 9820 9817 9813 9811 9809 9807 9804 9803 9801 9800 9799 9798 9798 9798 9798 9798 9798 9799 9798 9798 9799 9800 9801 9802 9803 9805 9806 9808 9809 9812 9814 9815 9816 9817 9818 9820 9821 9823 9825 9826 9828 9830 9831 9832 9834 9835 9837 9840 9842 9844 9845 9846 9846 9847 9850 9853 9856 9859 9862 9865 9867 9870 9873 9875 9877 9880 9884 9889 9893 9898 9903 9909 9914 9919
9853 9847 9841 9836 9832 9828 9824 9821 9818 9816 9813 9811 9808 9805 9802 9801 9799 9797 9795 9794 9793 9792 9791 9791 9790 9790 9791 9791 9792 9791 9791 9792 9793 9794 9795 9796 9798 9799 9800 9802 9804 9806 9808 9809 9811 9812 9813 9814 9816 9818 9819 9821 9822 9824 9825 9826 9827 9829 9831 9834 9836 9837 9839 9839 9839 9841 9844 9847 9850 9852 9854 9856 9859 9862 9864 9867 9871 9875 9878 9882 9887 9892 9898 9903 9908
9842 9837 9831 9825 9821 9818 9815 9811 9809 9807 9804 9802 9799 9796 9794 9792 9791 9789 9787 9786 9785 9784 9784 9783 9783 9783 9784 9784 9784 9785 9785 9786 9787 9788 9789 9790 9791 9792 9794 9795 9797 9800 9802 9803 9804 9805 9806 9807 9809 9811 9812 9814 9815 9817 9818 9819 9820 9821 9823 9826 9828 9829 9831 9832 9832 9833 9835 9839 9841 9843 9845 9846 9848 9851 9854 9858 9862 9866 9869 9872 9877 9881 9886 9891 9896
9831 9826 9821 9816 9812 9808 9805 9802 9800 9798 9796 9793 9791 9788 9786 9784 9783 9781 9779 9778 9777 9777 9776 9776 9776 9776 9776 9777 9777 9778 9778 9779 9780 9781 9782 9783 9784 9785 9787 9789 9791 9793 9795 9796 9797 9798 9799 9800 9802 9803 9805 9806 9808 9809 9811 9812 9813 9814 9816 9818 9820 9822 9823 9824 9825 9826 9827 9830 9832 9834 9835 9836 9838 9841 9845 9849 9853 9857 9860 9863 9866 9871 9875 9879 9884
9820 9816 9812 9807 9803 9800 9797 9794 9791 9789 9787 9785 9782 9780 9779 9777 9775 9773 9772 9771 9770 9769 9769 9769 9768 9768 9769 9769 9770 9771 9772 9773 9774 9774 9775 9776 9777 9778 9780 9782 9784 9786 9787 9789 9790 9791 9792 9793 9795 9796 9797 9799 9801 9802 9803 9805 9806 9807 9808 9810 9812 9814 9815 9817 9818 9819 9820 9822 9823 9825 9827 9828 9829 9831 9835 9839 9844 9848 9850 9853 9857 9861 9864 9868 9873
9812 9808 9804 9799 9795 9792 9789 9786 9783 9780 9779 9777 9774 9772 9771 9769 9767 9766 9765 9763 9762 9762 9762 9762 9761 9761 9762 9762 9763 9764 9765 9766 9767 9767 9768 9769 9770 9772 9773 9775 9776 9778 9780 9781 9783 9784 9785 9786 9787 9788 9790 9791 9793 9794 9796 9797 9799 9800 9801 9803 9804 9806 9807 9809 9810 9812 9813 9814 9816 9817 9819 9820 9821 9822 9825 9830 9836 9839 9840 9843 9847 9850 9853 9857 9863
9804 9800 9796 9791 9786 9783 9780 9777 9774 9772 9770 9768 9766 9764 9763 9761 9759 9758 9757 9756 9755 9754 9754 9754 9754 9754 9754 9755 9756 9757 9758 9759 9760 9760 9761 9762 9763 9764 9766 9767 9769 9771 9773 9774 9776 9778 9779 9779 9780 9781 9783 9784 9785 9787 9788 9790 9791 9793 9794 9796 9797 9799 9800 9801 9803 9804 9806 9807 9809 9810 9811 9812 9813 9815 9816 9821 9826 9829 9831 9834 9837 9840 9843 9848 9852
9795 9791 9788 9783 9778 9774 9771 9768 9766 9764 9762 9760 9758 9756 9755 9753 9752 9750 9749 9748 9747 9747 9746 9746 9746 9746 9747 9747 9748 9749 9750 9752 9753 9754 9754 9755 9756 9757 9758 9760 9762 9764 9765 9767 9769 9770 9771 9772 9773 9774 9775 9777 9778 9780 9781 9782 9784 9786 9787 9789 9790 9791 9793 9794 9796 9797 9799 9800 9802 9803 9804 9805 9806 9808 9809 9812 9816 9819 9822 9824 9827 9830 9834 9838 9843
9786 9782 9779 9775 9770 9766 9762 9759 9757 9755 9753 9752 9750 9748 9747 9745 9744 9743 9741 9740 9740 9739 9739 9739 9739 9739 9739 9740 9740 9741 9743 9745 9746 9747 9748 9748 9749 9751 9752 9753 9754 9756 9758 9760 9761 9762 9763 9764 9766 9767 9768 9769 9771 9773 9774 9775 9776 9778 9780 9782 9783 9784 9786 9787 9789 9790 9792 9793 9795 9796 9797 9798 9800 9801 9802 9804 9807 9810 9813 9815 9818 9821 9824 9829 9833
9776 9772 9769 9766 9762 9759 9755 9751 9749 9746 9745 9743 9742 9740 9739 9737 9736 9735 9734 9733 9732 9731 9731 9731 9731 9731 9732 9732 9733 9734 9735 9737 9738 9740 9741 9741 9743 9744 9744 9745 9746 9749 9751 9752 9753 9754 9756 9757 9758 9759 9761 9762 9764 9765 9767 9768 9769 9771 9772 9774 9776 9777 9779 9780 9782 9783 9785 9786 9788 9789 9790 9792 9793 9794 9795 9797 9799 9801 9804 9806 9808 9811 9815 9819 9824
9766 9762 9759 9755 9752 9749 9746 9743 9740 9738 9736 9735 9733 9732 9731 9729 9728 9727 9726 9725 9724 9724 9723 9723 9723 9723 9724 9724 9725 9726 9727 9729 9730 9732 9733 9734 9735 9736 9737 9737 9739 9742 9743 9744 9745 9747 9748 9749 9751 9752 9753 9755 9756 9758 9759 9761 9762 9764 9765 9767 9768 9770 9772 9774 9775 9777 9778 9779 9781 9782 9783 9785 9786 9787 9789 9790 9792 9793 9795 9797 9800 9803 9806 9810 9814
9758 9754 9750 9746 9743 9740 9737 9735 9732 9730 9728 9727 9725 9724 9723 9721 9720 9719 9718 9717 9716 9716 9716 9716 9715 9715 9716 9716 9717 9718 9719 9720 9722 9723 9724 9726 9728 9728 9729 9730 9732 9734 9735 9736 9738 9739 9740 9742 9743 9744 9746 9747 9749 9750 9752 9753 9755 9756 9758 9760 9761 9763 9764 9766 9768 9770 9771 9773 9774 9775 9777 9778 9779 9780 9782 9783 9785 9786 9788 9790 9791 9794 9797 9801 9804
9748 9745 9742 9739 9736 9733 9730 9727 9725 9722 9720 9719 9717 9716 9715 9713 9712 9711 9711 9710 9709 9708 9708 9708 9708 9708 9708 9709 9710 9711 9711 9712 9713 9715 9716 9718 9719 9720 9721 9722 9724 9726 9727 9729 9730 9731 9733 9734 9736 9737 9739 9740 9741 9743 9744 9746 9748 9749 9751 9753 9754 9756 9757 9759 9761 9763 9764 9766 9767 9769 9770 9771 9773 9774 9775 9776 9778 9779 9781 9783 9784 9786 9789 9792 9795
9738 9735 9733 9731 9728 9726 9723 9720 9717 9715 9713 9711 9709 9708 9707 9705 9704 9703 9703 9702 9701 9700 9700 9700 9700 9700 9700 9701 9702 9703 9704 9704 9705 9706 9708 9710 9711 9712 9713 9714 9716 9718 9719 9721 9722 9724 9725 9726 9728 9730 9731 9733 9734 9736 9737 9739 9741 9742 9744 9746 9747 9749 9750 9752 9754 9756 9757 9759 9760 9762 9763 9765 9766 9767 9768 9770 9771 9772 9774 9775 9777 9779 9781 9783 9786
9731 9728 9725 9722 9719 9717 9715 9712 9709 9707 9705 9703 9702 9700 9699 9697 9696 9695 9695 9694 9693 9693 9692 9692 9692 9692 9693 9693 9694 9695 9696 9697 9697 9699 9700 9702 9703 9704 9705 9706 9708 9710 9711 9713 9715 9716 9718 9719 9721 9722 9724 9726 9727 9729 9730 9732 9734 9735 9737 9739 9741 9742 9744 9745 9747 9749 9750 9752 9753 9755 9756 9758 9759 9761 9762 9763 9764 9766 9767 9768 9770 9772 9774 9776 9778
9724 9720 9716 9713 9710 9708 9705 9703 9701 9698 9696 9695 9693 9692 9691 9689 9688 9687 9686 9686 9685 9685 9684 9684 9684 9684 9685 9685 9686 9687 9688 9689 9690 9691 9692 9694 9695 9696 9698 9699 9700 9702 9704 9705 9707 9709 9710 9712 9713 9715 9717 9718 9720 9722 9723 9725 9727 9729 9730 9732 9734 9735 9737 9738 9740 9741 9743 9745 9746 9747 9749 9751 9752 9754 9755 9756 9757 9759 9760 9761 9763 9764 9766 9768 9771
9715 9711 9707 9704 9701 9698 9696 9694 9692 9690 9688 9686 9685 9683 9682 9681 9680 9678 9677 9677 9677 9676 9676 9676 9676 9676 9676 9677 9677 9678 9679 9680 9681 9682 9684 9686 9687 9689 9690 9692 9693 9694 9696 9698 9700 9701 9703 9705 9706 9708 9710 9711 9713 9715 9716 9718 9720 9722 9723 9725 9727 9728 9730 9731 9733 9734 9736 9737 9739 9741 9742 9744 9745 9746 9748 9749 9750 9752 9753 9754 9756 9757 9759 9761 9763
9705 9702 9699 9695 9692 9689 9687 9685 9683 9681 9678 9677 9676 9674 9673 9672 9671 9670 9669 9668 9668 9668 9668 9668 9668 9668 9668 9668 9669 9670 9670 9671 9672 9674 9675 9677 9679 9681 9682 9684 9685 9687 9689 9690 9692 9694 9696 9697 9699 9701 9702 9704 9706 9708 9709 9711 9713 9714 9716 9718 9720 9721 9723 9724 9726 9727 9729 9730 9732 9733 9735 9736 9738 9739 9740 9741 9743 9744 9746 9747 9749 9750 9752 9753 9755
9695 9692 9689 9686 9684 9681 9678 9676 9674 9672 9670 9668 9666 9665 9664 9663 9662 9661 9660 9659 9659 9659 9659 9659 9659 9659 9659 9659 9660 9661 9662 9663 9664 9665 9666 9668 9670 9672 9674 9676 9677 9679 9681 9683 9684 9686 9688 9690 9692 9693 9695 9697 9699 9700 9702 9704 9705 9707 9709 9710 9712 9714 9715 9717 9719 9720 9722 9723 9725 9726 9728 9729 9730 9732 9733 9734 9736 9737 9738 9739 9741 9742 9744 9746 9747
9687 9683 9680 9678 9675 9673 9670 9668 9665 9663 9661 9659 9657 9656 9655 9654 9652 9652 9651 9651 9650 9650 9650 9651 9651 9650 9650 9650 9651 9652 9653 9654 9655 9656 9658 9660 9661 9663 9665 9667 9669 9671 9672 9674 9676 9678 9680 9682 9684 9686 9688 9689 9691 9693 9695 9696 9698 9700 9701 9703 9704 9706 9708 9710 9711 9713 9715 9716 9718 9719 9720 9722 9723 9724 9725 9727 9728 9729 9731 9732 9733 9735 9736 9738 9740
9680 9677 9673 9670 9668 9665 9662 9660 9657 9655 9653 9651 9649 9647 9646 9645 9644 9643 9642 9641 9641 9641 9641 9642 9642 9641 9641 9641 9642 9643 9644 9645 9646 9648 9649 9651 9652 9654 9656 9658 9660 9661 9663 9665 9667 9669 9671 9673 9675 9678 9680 9682 9683 9685 9687 9689 9690 9692 9693 9695 9697 9698 9700 9702 9704 9706 9707 9709 9710 9712 9713 9714 9716 9717 9718 9719 9721 9722 9723 9724 9726 9727 9728 9730 9732
9672 9669 9665 9662 9659 9656 9654 9651 9649 9646 9644 9643 9641 9639 9637 9636 9635 9634 9633 9632 9632 9632 9632 9633 9633 9633 9632 9632 9632 9633 9635 9636 9637 9638 9640 9641 9643 9645 9646 9648 9650 9652 9654 9656 9658 9660 9662 9664 9666 9669 9671 9673 9675 9677 9679 9681 9682 9684 9686 9687 9689 9690 9692 9694 9696 9698 9699 9701 9703 9704 9706 9707 9708 9710 9711 9712 9713 9714 9716 9717 9718 9720 9721 9722 9724
9661 9658 9654 9651 9648 9646 9643 9641 9639 9637 9635 9633 9632 9630 9629 9627 9626 9625 9624 9623 9623 9622 9623 9623 9624 9624 9624 9624 9624 9624 9625 9626 9628 9629 9630 9632 9634 9635 9637 9638 9640 9643 9645 9646 9648 9651 9653 9655 9657 9659 9661 9664 9666 9668 9670 9672 9674 9676 9677 9679 9681 9683 9684 9686 9688 9690 9691 9693 9695 9696 9698 9699 9701 9702 9704 9705 9706 9707 9708 9709 9710 9712 9713 9715 9716
9650 9647 9644 9641 9638 9635 9633 9631 9629 9627 9625 9623 9622 9621 9620 9618 9617 9616 9615 9615 9614 9613 9613 9614 9615 9615 9616 9616 9616 9615 9616 9617 9618 9620 9621 9622 9624 9626 9627 9629 9631 9633 9635 9637 9639 9641 9643 9645 9647 9650 9652 9654 9656 9659 9661 9663 9665 9667 9669 9670 9672 9674 9676 9678 9679 9681 9683 9685 9686 9688 9690 9691 9693 9694 9696 9697 9698 9700 9701 9702 9703 9704 9705 9707 9708
9643 9639 9636 9632 9629 9627 9624 9622 9620 9618 9616 9615 9613 9612 9611 9610 9608 9607 9606 9605 9605 9605 9604 9604 9605 9606 9607 9607 9607 9607 9607 9608 9609 9611 9612 9613 9614 9616 9618 9619 9621 9623 9625 9627 9629 9631 9633 9635 9638 9640 9642 9644 9646 9649 9651 9653 9655 9657 9659 9661 9663 9665 9667 9669 9671 9672 9674 9676 9678 9679 9681 9683 9684 9686 9687 9689 9690 9692 9693 9694 9695 9697 9698 9699 9700
9636 9632 9629 9625 9622 9619 9616 9614 9611 9609 9608 9606 9605 9603 9602 9600 9600 9598 9597 9597 9596 9596 9596 9596 9596 9596 9597 9598 9599 9599 9599 9599 9600 9601 9603 9604 9605 9607 9608 9610 9612 9613 9615 9617 9619 9621 9623 9625 9628 9630 9632 9634 9636 9638 9641 9643 9645 9647 9649 9651 9653 9655 9657 9659 9661 9663 9665 9667 9668 9670 9672 9674 9675 9677 9679 9680 9682 9683 9685 9686 9687 9689 9690 9691 9692